Temp
96 89 76 77 77 77 76 76 77 77 78 78 77 77 76 76 76 76 77 77 77 79 80 79 79 80 80 79 78 78 77 77 76 77 77 78 78 78 77 77 77 85 77
95 90 75 76 77 77 77 77 77 77 78 78 77 77 76 76 76 76 77 77 78 79 80 79 79 80 79 78 77 77 76 76 75 76 77 79 78 78 77 77 77 80 76
93 88 86 75 76 77 77 77 78 78 78 78 77 77 76 76 76 76 76 77 78 79 80 79 79 79 79 78 77 76 76 75 75 76 77 87 86 78 77 76 76 76 76
95 94 87 74 76 77 77 77 78 78 78 77 77 77 77 77 76 76 76 76 77 78 79 79 79 79 78 76 76 75 75 75 75 76 84 89 86 77 77 76 77 77 76
95 91 81 74 75 77 77 77 78 77 77 77 77 77 77 77 77 76 76 76 77 78 79 79 79 78 76 75 75 75 75 74 74 77 87 87 84 80 77 76 76 76 75
87 86 76 72 73 74 76 76 77 76 76 76 76 77 77 77 77 77 76 76 77 78 78 78 78 77 75 74 74 74 74 73 73 86 80 83 84 77 77 76 77 77 75
77 73 75 68 70 73 74 74 74 74 75 75 75 76 76 77 77 76 75 75 76 76 77 77 77 75 74 73 73 73 73 72 82 87 86 83 87 77 77 76 76 75 75
72 71 73 72 70 69 70 70 71 73 73 73 74 75 75 76 75 75 75 75 75 75 75 75 75 74 73 73 73 72 71 71 81 86 90 83 76 77 77 76 75 74 74
74 72 71 71 71 71 69 69 70 71 72 72 72 73 74 74 74 75 74 74 74 74 74 74 74 73 73 73 72 71 70 71 81 88 89 85 76 77 77 76 75 74 74
73 72 71 71 71 73 76 70 71 70 70 72 72 72 70 72 72 72 73 73 74 74 74 73 73 72 72 72 71 71 69 71 81 84 82 81 75 77 77 76 75 74 74
73 70 69 69 71 73 78 77 75 74 71 71 72 69 72 81 83 82 78 75 73 72 72 72 71 71 71 71 71 70 69 82 85 87 85 72 75 77 77 76 75 73 73
70 70 69 68 68 71 77 75 78 80 80 77 74 72 73 75 78 77 75 72 72 70 71 71 71 70 71 84 80 71 79 83 85 82 86 71 75 77 77 75 74 74 73
71 70 69 68 67 67 71 74 76 78 77 78 76 72 71 75 74 75 76 76 77 72 80 78 77 78 80 83 86 81 82 82 85 85 78 71 74 76 77 76 74 74 73
70 68 68 68 67 66 70 71 73 74 75 75 75 74 73 74 71 74 76 73 74 76 74 77 78 78 78 79 83 84 84 83 82 85 80 69 71 75 76 76 75 74 74
69 67 66 67 66 66 67 67 68 70 72 70 74 74 72 72 72 74 75 77 78 72 71 73 73 75 76 74 75 79 82 84 84 83 78 67 68 72 75 76 76 75 74
68 67 66 66 65 65 66 65 66 69 69 71 72 71 70 69 69 71 73 77 79 81 75 71 66 70 72 72 75 76 75 76 83 83 82 69 66 68 71 74 75 75 75
68 67 64 64 65 63 64 65 66 68 68 69 70 69 69 67 66 68 70 72 76 78 75 75 74 69 63 66 65 65 67 64 68 76 79 80 71 65 67 70 72 73 74
67 65 65 65 64 62 63 65 66 67 66 68 69 68 68 66 65 65 66 68 72 71 73 76 75 75 70 68 68 66 64 65 64 68 76 78 78 82 67 67 69 71 72
66 64 63 63 62 61 63 65 66 66 67 68 67 68 66 63 63 62 63 66 67 68 69 71 74 75 73 71 69 69 66 63 66 70 70 72 75 75 82 68 66 67 69
64 63 62 62 61 61 64 64 66 66 66 66 66 66 64 63 62 61 62 62 63 65 66 69 69 72 73 74 74 73 71 69 65 69 70 72 73 75 76 78 69 72 65
63 62 61 60 60 60 61 59 60 60 62 63 64 63 63 62 60 59 60 60 61 62 63 64 65 66 69 73 71 71 72 73 71 70 71 71 73 75 75 76 77 78 72
61 60 59 59 59 59 59 58 58 58 59 61 62 62 61 60 59 58 57 57 58 59 59 60 62 62 66 70 68 70 64 71 72 71 71 68 71 73 75 76 76 79 80
59 58 57 58 58 58 56 58 57 57 58 57 57 56 57 56 55 54 53 52 53 54 56 59 60 61 61 67 69 68 65 64 72 74 72 74 72 73 75 79 77 78 78
57 58 57 57 57 57 55 54 51 51 49 51 51 52 51 51 50 50 49 49 49 49 49 51 56 59 60 60 66 71 71 70 63 65 75 73 75 74 75 77 78 78 78
58 57 57 56 56 55 53 51 50 48 48 48 47 45 44 46 47 47 47 46 46 47 48 48 49 51 53 55 61 64 67 69 69 63 61 68 72 75 76 76 78 79 78
58 57 56 55 55 54 52 51 48 45 43 42 42 41 41 43 44 44 45 44 45 46 46 48 48 48 49 52 55 58 62 62 63 62 63 66 67 70 73 75 73 75 77
MSLP
1007.83 1009.85 1010.72 1010.80 1011.02 1011.16 1011.33 1011.35 1011.41 1011.42 1011.64 1011.87 1012.17 1012.48 1012.76 1012.88 1012.73 1012.74 1012.86 1012.96 1013.06 1013.16 1013.26 1013.31 1013.45 1013.47 1013.41 1013.38 1013.39 1013.49 1013.63 1013.65 1013.70 1013.74 1013.75 1013.86 1014.02 1014.27 1014.43 1014.39 1014.46 1014.41 1015.25
1008.69 1010.16 1011.29 1011.29 1011.42 1011.53 1011.60 1011.64 1011.75 1011.83 1011.89 1011.99 1012.09 1012.28 1012.68 1013.05 1013.06 1012.95 1013.09 1013.23 1013.32 1013.33 1013.48 1013.60 1013.67 1013.72 1013.69 1013.65 1013.69 1013.69 1013.72 1013.85 1013.90 1013.93 1013.97 1014.07 1014.40 1014.63 1014.70 1014.90 1014.92 1014.83 1015.49
1009.34 1010.76 1011.22 1011.79 1011.84 1011.86 1011.96 1011.95 1012.02 1012.06 1012.12 1012.18 1012.24 1012.41 1012.63 1012.79 1013.11 1013.23 1013.18 1013.24 1013.47 1013.57 1013.56 1013.74 1013.76 1013.73 1013.74 1013.84 1013.85 1014.02 1014.03 1013.94 1014.05 1014.01 1013.89 1013.28 1013.80 1014.77 1014.92 1015.24 1015.14 1015.21 1015.64
1009.30 1010.01 1011.37 1012.43 1012.42 1012.40 1012.41 1012.42 1012.35 1012.31 1012.30 1012.42 1012.53 1012.69 1012.80 1012.86 1012.91 1013.05 1013.38 1013.45 1013.50 1013.51 1013.68 1013.81 1013.89 1013.92 1013.98 1013.96 1014.00 1014.02 1014.16 1014.18 1014.15 1014.06 1013.50 1013.02 1013.62 1014.79 1015.02 1015.37 1015.47 1015.58 1015.82
1009.63 1010.87 1012.60 1012.89 1012.80 1012.82 1012.76 1012.76 1012.74 1012.66 1012.62 1012.60 1012.74 1012.73 1012.74 1012.80 1012.92 1013.01 1013.14 1013.34 1013.51 1013.62 1013.66 1013.81 1013.88 1014.04 1014.15 1014.18 1014.18 1014.23 1014.14 1014.16 1014.20 1013.95 1012.65 1012.65 1013.35 1014.37 1015.12 1015.33 1015.61 1015.78 1015.93
1011.18 1011.80 1013.09 1013.26 1013.17 1013.06 1012.94 1012.92 1012.90 1012.93 1012.87 1012.84 1012.85 1012.86 1012.78 1012.72 1012.74 1012.84 1013.07 1013.24 1013.22 1013.45 1013.63 1013.82 1013.78 1013.95 1014.16 1014.26 1014.27 1014.29 1014.32 1014.27 1014.23 1013.36 1012.81 1012.95 1013.38 1014.31 1014.92 1015.40 1015.54 1015.67 1016.07
1013.28 1013.71 1013.77 1013.91 1013.76 1013.39 1013.20 1013.20 1013.13 1013.11 1013.04 1013.03 1012.96 1012.96 1012.93 1012.77 1012.87 1012.83 1012.96 1013.13 1013.32 1013.36 1013.53 1013.64 1013.83 1013.97 1014.04 1014.17 1014.34 1014.42 1014.41 1014.44 1013.98 1012.81 1012.38 1012.89 1013.18 1014.34 1014.74 1015.27 1015.57 1015.83 1016.04
1014.46 1014.57 1014.36 1014.20 1014.27 1014.14 1013.92 1013.76 1013.53 1013.34 1013.20 1013.12 1013.10 1012.99 1012.99 1012.88 1012.77 1012.94 1012.97 1013.08 1013.14 1013.32 1013.41 1013.48 1013.58 1013.78 1014.18 1014.25 1014.28 1014.45 1014.47 1014.46 1013.89 1013.00 1012.28 1012.57 1013.49 1014.15 1014.91 1015.25 1015.53 1015.80 1016.05
1014.75 1014.84 1014.94 1014.92 1014.78 1014.43 1014.38 1014.14 1013.92 1013.65 1013.33 1013.22 1013.12 1013.09 1012.98 1013.02 1012.97 1012.97 1012.92 1012.97 1013.01 1013.09 1013.21 1013.44 1013.48 1013.64 1013.79 1014.06 1014.25 1014.43 1014.50 1014.46 1013.82 1012.35 1012.04 1012.47 1013.17 1013.85 1014.62 1015.17 1015.49 1015.73 1015.93
1015.24 1015.41 1015.60 1015.53 1015.40 1014.88 1014.47 1014.30 1014.07 1013.87 1013.75 1013.38 1013.12 1013.09 1013.07 1012.86 1012.78 1012.78 1012.80 1012.78 1012.78 1012.92 1012.96 1013.15 1013.27 1013.44 1013.77 1013.84 1014.01 1014.11 1014.32 1014.48 1013.94 1012.87 1012.21 1012.61 1013.14 1013.70 1014.32 1014.91 1015.35 1015.66 1015.90
1015.68 1016.22 1016.30 1016.20 1015.90 1015.30 1014.46 1014.36 1014.02 1013.83 1013.89 1013.82 1013.53 1013.52 1012.95 1012.48 1011.92 1011.86 1011.98 1012.11 1012.30 1012.44 1012.64 1012.78 1013.04 1013.28 1013.46 1013.75 1013.87 1013.96 1014.08 1013.62 1013.09 1012.47 1012.00 1012.36 1012.84 1013.47 1014.08 1014.66 1015.09 1015.50 1015.80
1016.15 1016.57 1016.81 1016.78 1016.60 1015.97 1015.15 1015.00 1014.50 1014.05 1013.97 1014.07 1014.25 1014.09 1013.53 1013.01 1012.40 1011.83 1011.65 1011.70 1011.49 1012.03 1012.30 1012.45 1012.60 1012.84 1013.21 1012.59 1012.76 1013.48 1013.48 1012.91 1012.53 1012.32 1011.67 1012.30 1012.59 1013.16 1013.79 1014.35 1014.79 1015.22 1015.63
1016.72 1017.14 1017.30 1017.17 1017.06 1016.71 1016.04 1015.61 1015.10 1014.66 1014.58 1014.23 1014.18 1014.32 1014.14 1013.49 1013.04 1012.47 1012.09 1011.79 1011.71 1011.70 1011.61 1011.78 1012.09 1012.11 1012.02 1011.91 1011.32 1011.68 1011.99 1012.31 1012.16 1011.74 1011.95 1012.08 1012.43 1013.00 1013.54 1014.00 1014.35 1014.84 1015.34
1017.13 1017.57 1017.67 1017.55 1017.48 1017.27 1016.77 1016.34 1015.93 1015.43 1015.17 1014.82 1014.62 1014.46 1014.24 1013.66 1013.65 1012.99 1012.50 1012.24 1011.95 1011.66 1011.70 1011.44 1011.31 1011.39 1011.33 1011.25 1010.94 1010.52 1010.85 1011.28 1011.79 1011.25 1011.23 1012.21 1012.00 1012.65 1013.30 1013.68 1013.91 1014.29 1014.85
1017.58 1017.98 1018.22 1018.06 1017.93 1017.64 1017.07 1017.03 1016.54 1016.01 1015.62 1015.74 1014.89 1014.80 1014.92 1014.59 1013.97 1013.45 1012.91 1012.34 1011.76 1011.80 1011.77 1011.59 1011.35 1011.01 1011.02 1011.12 1010.71 1010.50 1010.62 1010.68 1011.35 1011.10 1010.88 1011.79 1012.07 1012.28 1012.92 1013.26 1013.54 1013.74 1014.21
1017.97 1018.25 1018.55 1018.48 1018.37 1018.19 1017.67 1017.51 1017.05 1016.43 1016.20 1015.73 1015.31 1015.29 1015.21 1015.18 1014.66 1014.04 1013.28 1012.37 1011.67 1011.16 1011.68 1011.73 1011.44 1010.33 1011.21 1011.37 1011.07 1010.92 1010.96 1010.89 1010.78 1010.65 1010.52 1011.39 1011.77 1012.16 1012.44 1013.04 1013.07 1013.34 1013.55
1018.35 1018.65 1018.77 1018.75 1018.68 1018.61 1018.05 1017.76 1017.24 1016.72 1016.59 1016.00 1015.51 1015.53 1015.33 1015.37 1015.14 1014.51 1013.72 1013.04 1012.28 1011.66 1011.66 1011.36 1011.19 1011.50 1011.64 1011.48 1011.57 1011.53 1011.52 1011.67 1012.05 1011.45 1010.42 1010.54 1011.12 1011.59 1011.95 1012.48 1012.92 1012.72 1013.16
1018.93 1019.09 1019.10 1019.14 1018.96 1018.98 1018.51 1018.01 1017.52 1017.03 1016.82 1016.16 1015.93 1015.79 1015.45 1015.52 1015.45 1014.98 1014.37 1013.67 1012.93 1012.60 1012.02 1011.34 1011.15 1010.78 1011.18 1011.26 1011.30 1011.48 1011.40 1011.37 1011.44 1011.12 1011.27 1010.84 1010.64 1010.45 1011.58 1011.71 1012.20 1012.46 1012.58
1019.23 1019.41 1019.35 1019.33 1019.18 1019.11 1018.53 1017.97 1017.47 1017.09 1016.61 1016.28 1016.16 1015.72 1015.68 1015.97 1015.68 1015.49 1014.84 1014.06 1013.57 1013.15 1012.59 1011.98 1011.01 1010.41 1010.24 1010.45 1010.72 1010.92 1011.03 1010.73 1010.61 1010.92 1011.24 1010.38 1010.43 1010.37 1009.97 1010.74 1011.24 1011.67 1012.04
1019.75 1019.92 1019.89 1019.82 1019.72 1019.47 1018.66 1018.24 1017.72 1017.31 1016.76 1016.54 1016.22 1015.94 1016.03 1015.97 1015.90 1015.66 1015.02 1014.50 1014.04 1013.30 1012.64 1012.08 1011.39 1010.68 1010.13 1009.53 1009.63 1009.60 1009.79 1009.87 1009.97 1010.04 1009.68 1008.99 1009.59 1010.03 1009.76 1009.57 1010.79 1010.74 1011.15
1019.91 1020.07 1020.15 1020.11 1020.04 1019.78 1019.14 1018.85 1018.24 1017.67 1017.25 1016.84 1016.40 1016.19 1016.07 1015.91 1015.84 1015.68 1015.22 1014.63 1014.14 1013.53 1012.81 1012.34 1011.84 1011.07 1010.15 1009.63 1009.25 1009.02 1008.98 1008.90 1008.99 1008.85 1008.90 1008.62 1008.78 1008.81 1009.09 1008.47 1009.24 1009.80 1010.16
1020.22 1020.47 1020.61 1020.53 1020.43 1020.22 1020.03 1019.79 1019.27 1018.70 1018.01 1017.08 1016.53 1016.20 1016.24 1016.03 1015.98 1015.77 1015.40 1014.96 1014.43 1013.72 1013.17 1012.64 1012.01 1011.19 1010.25 1009.57 1008.82 1008.26 1007.91 1007.40 1007.46 1007.68 1007.61 1007.80 1007.79 1008.21 1008.24 1008.10 1008.27 1008.03 1008.53
1020.45 1020.75 1020.90 1020.83 1020.66 1020.62 1020.67 1020.05 1019.61 1019.26 1018.16 1017.55 1017.11 1017.09 1016.68 1016.66 1016.58 1016.24 1015.85 1015.55 1015.07 1014.51 1013.39 1012.63 1011.99 1011.22 1010.26 1009.40 1008.73 1007.92 1006.92 1006.25 1005.69 1005.70 1006.08 1006.32 1006.92 1007.10 1007.16 1007.14 1007.27 1007.01 1007.59
1020.64 1020.90 1020.99 1021.01 1020.82 1020.83 1020.89 1020.55 1020.29 1019.71 1019.16 1018.82 1018.36 1017.92 1017.67 1017.43 1017.01 1016.55 1016.23 1015.77 1015.25 1014.77 1014.21 1013.56 1012.57 1011.44 1010.69 1009.49 1008.79 1007.91 1007.18 1006.66 1006.07 1005.03 1004.24 1004.66 1005.29 1005.93 1006.03 1006.03 1006.02 1006.45 1006.66
1020.52 1020.86 1021.04 1021.10 1020.96 1021.08 1021.23 1021.04 1020.77 1020.42 1020.14 1019.71 1019.37 1018.89 1018.51 1017.80 1017.45 1016.76 1016.25 1015.85 1015.30 1014.67 1014.02 1013.55 1013.12 1012.30 1011.55 1010.49 1009.08 1008.39 1007.45 1006.89 1006.39 1006.31 1005.39 1004.56 1004.32 1004.84 1004.89 1005.14 1005.39 1005.56 1005.78
1020.51 1020.91 1021.06 1021.08 1020.99 1021.24 1021.41 1021.31 1021.22 1021.05 1020.84 1020.40 1019.97 1019.36 1018.84 1018.23 1017.52 1016.93 1016.38 1015.98 1015.16 1014.38 1013.77 1013.15 1012.72 1012.27 1011.72 1011.03 1010.16 1009.34 1008.12 1007.35 1006.71 1006.69 1005.90 1005.10 1004.51 1004.47 1004.45 1004.48 1004.74 1004.89 1004.90
Wind_Speed
13 11 5 7 8 8 7 8 7 6 7 7 6 4 4 5 7 7 7 7 7 7 9 7 5 5 4 7 6 5 6 6 7 8 9 10 11 10 9 8 9 14 12
12 11 5 6 7 7 7 7 5 4 6 9 9 7 5 4 6 8 8 6 7 8 8 7 5 4 4 5 5 6 7 6 7 7 9 10 9 9 6 2 6 15 12
13 10 9 6 5 5 4 5 5 5 4 6 8 7 7 6 6 7 8 8 7 8 8 7 6 4 4 4 5 5 6 7 7 8 11 10 11 8 5 5 10 13 13
10 11 12 7 7 7 6 5 4 2 3 3 6 7 7 7 7 7 7 7 7 8 9 7 6 4 4 4 5 7 6 6 7 8 10 7 11 11 8 7 9 11 12
12 18 13 10 9 9 8 8 8 7 5 2 2 6 8 9 9 8 8 8 8 8 8 7 7 4 4 4 5 6 7 8 8 11 11 9 6 13 10 9 10 9 11
24 16 16 13 12 12 11 10 10 9 8 6 3 5 10 11 11 11 9 9 9 8 8 8 8 5 5 4 6 7 7 8 9 13 5 6 6 17 13 10 7 10 7
18 16 16 21 21 15 15 14 12 11 10 9 7 6 8 9 8 9 9 9 8 8 8 8 7 6 6 6 6 7 7 8 11 11 4 8 7 13 14 12 7 9 10
15 14 15 18 19 20 20 19 12 10 10 10 9 8 9 9 8 8 9 9 9 10 9 10 8 8 7 6 6 7 7 9 12 13 8 7 13 14 13 12 9 10 10
15 15 15 15 16 14 13 16 16 13 9 9 9 9 9 9 9 8 9 11 11 10 10 10 8 8 9 8 7 7 6 9 13 10 7 5 19 15 13 11 11 11 11
15 15 15 13 14 12 11 12 11 11 17 12 8 9 10 10 10 9 9 12 11 11 12 11 9 8 9 9 9 9 7 8 13 14 4 6 16 15 12 11 11 11 12
13 15 14 15 15 14 11 11 9 7 10 12 13 16 10 9 12 13 13 12 13 11 10 11 9 8 9 9 10 9 8 9 12 11 7 17 17 15 13 11 11 12 12
13 14 13 13 13 13 10 11 11 10 10 8 11 13 8 12 9 12 11 12 12 9 9 10 9 8 9 11 10 12 8 12 11 8 6 14 16 15 13 12 12 13 13
12 11 13 13 13 13 10 9 6 6 7 7 10 10 10 10 8 8 6 6 7 12 9 10 11 9 13 11 11 11 12 11 9 7 7 14 16 15 15 14 13 14 15
12 13 14 14 12 12 9 8 9 8 8 8 9 11 10 6 8 9 6 7 7 6 9 9 7 9 10 11 11 9 12 9 7 8 8 12 15 16 16 16 16 16 15
11 12 12 12 12 12 11 9 9 8 8 10 8 9 9 9 9 9 8 8 7 4 5 8 10 9 10 10 9 11 10 12 13 8 2 14 11 15 16 17 17 17 17
10 11 11 12 12 12 10 11 9 8 9 9 8 9 10 9 9 10 10 10 9 6 6 5 5 6 6 8 11 11 10 11 10 13 6 7 13 14 15 16 17 18 19
9 10 11 11 11 12 12 11 9 8 9 9 8 10 10 10 11 12 10 10 10 10 7 10 7 5 3 5 7 3 4 6 15 16 6 7 10 13 15 15 15 18 19
11 11 11 10 12 13 11 9 8 8 8 8 8 9 11 11 13 11 10 10 10 9 10 8 9 8 8 8 8 6 6 8 12 21 11 8 9 8 12 17 18 16 17
11 12 13 14 14 16 13 10 10 11 8 8 9 9 11 12 12 12 11 11 11 10 10 10 10 11 9 9 9 8 7 8 13 14 16 9 12 11 7 18 20 19 17
9 10 11 11 13 14 10 10 10 10 9 9 10 9 12 10 12 12 11 12 12 10 10 10 11 11 11 10 9 9 9 9 9 12 14 11 11 15 13 9 11 13 20
7 8 11 11 12 11 9 10 10 11 11 11 10 13 13 12 13 13 11 12 12 11 12 13 12 13 12 11 11 10 11 11 13 12 11 11 15 15 15 13 10 9 10
8 9 10 11 12 11 10 11 10 11 12 12 11 11 14 14 14 14 14 13 15 12 14 13 13 11 12 11 11 11 10 10 11 14 14 12 14 14 14 15 16 15 12
7 8 9 10 11 10 12 10 10 11 10 10 11 12 13 16 17 16 16 14 14 13 12 13 13 15 12 11 14 10 10 12 10 10 16 14 16 13 14 17 17 16 16
7 7 8 9 10 10 12 12 15 12 13 12 12 12 14 17 16 15 14 13 12 10 13 12 14 13 13 13 11 12 14 15 10 8 10 16 17 16 15 12 12 15 16
5 7 7 9 9 11 13 13 11 13 11 12 12 15 14 13 15 14 12 12 12 9 10 12 13 14 11 12 12 11 12 11 13 12 12 9 10 12 12 13 13 14 17
6 7 7 9 10 12 13 14 14 14 15 13 13 11 10 10 10 13 14 14 14 12 12 11 11 13 11 12 12 13 12 9 10 9 11 13 12 9 10 11 12 12 12
Wind_Direction
85 105 89 98 94 86 81 86 100 129 160 164 163 190 232 206 167 156 156 161 154 159 162 149 155 164 151 146 138 114 118 112 110 115 116 118 121 124 136 160 170 113 115
90 105 91 79 83 86 90 92 97 136 170 175 167 173 201 235 199 171 171 178 173 180 187 180 178 168 150 147 135 129 132 136 142 138 134 126 126 137 157 89 308 118 122
91 112 109 72 70 69 72 92 108 126 158 178 172 174 187 194 212 199 182 182 185 196 197 202 205 192 168 168 137 137 149 148 159 163 180 176 147 148 163 88 104 114 126
100 111 86 62 46 38 28 20 29 58 109 166 181 189 190 200 203 199 199 195 197 201 204 211 225 221 197 186 162 160 161 162 173 193 200 197 149 150 164 126 122 126 135
80 72 66 51 47 38 25 15 4 1 1 359 207 196 196 201 206 205 199 199 210 221 208 218 228 227 208 209 188 183 170 173 199 219 237 145 127 149 171 155 149 147 174
38 71 61 44 38 33 28 18 6 356 347 331 300 242 218 213 204 208 201 210 209 217 212 227 227 186 211 215 209 197 189 188 211 229 141 123 178 150 166 175 181 179 174
47 43 39 35 23 26 34 25 16 1 350 334 321 296 281 240 227 216 209 210 222 220 216 221 235 215 207 208 215 213 203 207 223 233 251 153 155 155 167 181 207 180 163
43 37 31 32 23 28 29 18 10 10 356 335 318 300 287 280 262 239 219 221 220 230 235 226 222 215 217 218 214 221 217 224 229 261 235 151 129 154 177 186 200 177 174
51 40 31 23 14 17 34 17 16 8 359 340 317 293 277 282 274 255 242 227 228 236 236 242 227 212 200 209 218 222 226 241 260 255 227 155 138 153 173 190 201 187 184
44 36 28 22 14 6 10 12 10 18 15 349 325 296 282 267 259 250 246 238 233 226 233 241 233 212 210 207 210 210 212 248 257 269 220 118 139 154 175 192 200 196 187
47 36 27 19 13 2 10 2 2 12 30 7 3 5 307 274 268 235 229 242 216 216 220 233 228 216 205 217 215 214 201 229 232 246 243 149 146 161 180 194 196 199 194
38 34 26 21 14 4 7 356 359 356 359 15 4 355 347 336 311 296 281 233 214 212 230 227 221 201 210 234 199 200 224 236 240 261 257 151 151 165 186 196 192 200 198
38 34 22 19 14 9 1 354 357 348 355 347 5 359 348 338 347 344 321 299 282 238 242 222 226 228 224 234 245 185 208 229 248 242 242 154 156 171 194 199 195 198 200
35 26 18 17 11 10 353 1 348 349 344 351 347 350 346 342 341 332 321 333 322 296 273 259 246 241 235 242 251 253 211 208 253 254 179 177 159 174 201 206 201 195 201
30 28 16 13 9 2 357 355 349 343 348 333 337 343 343 337 335 328 319 306 300 278 290 282 262 244 244 244 254 262 265 212 238 250 164 177 177 176 201 214 209 201 199
26 24 15 11 9 359 354 350 339 339 338 327 332 347 332 337 329 318 319 311 303 290 316 338 339 323 292 285 265 262 266 287 247 251 249 169 184 194 196 219 213 207 200
25 20 14 9 7 359 350 344 335 333 326 322 326 325 327 331 326 316 316 308 307 315 307 286 252 280 287 256 275 4 340 354 324 283 272 267 185 189 193 206 225 215 206
21 14 12 8 5 358 348 336 331 329 325 311 323 317 328 333 321 321 311 308 311 316 304 285 288 265 265 264 257 234 222 221 235 285 277 265 286 211 208 206 209 220 211
21 11 7 4 2 353 343 340 332 332 319 323 318 309 321 324 322 316 308 302 310 302 292 288 279 261 257 260 254 247 236 246 225 213 232 248 249 254 248 199 206 206 214
21 9 5 4 359 347 340 337 330 326 323 319 311 313 319 313 311 313 306 303 301 293 285 280 284 282 280 272 261 261 244 233 231 241 245 218 228 235 237 246 210 216 205
26 11 6 0 358 348 349 341 332 327 322 315 313 313 309 316 310 312 306 303 298 293 292 293 286 279 273 263 271 255 257 241 239 231 244 232 231 226 226 215 219 208 197
18 10 2 360 355 353 351 333 333 324 316 310 306 317 322 313 321 313 311 303 298 292 287 284 279 274 268 268 259 260 261 250 227 227 225 229 236 233 223 219 219 218 222
20 8 359 358 353 360 350 335 332 320 315 317 330 318 323 324 318 309 307 304 302 302 293 284 275 270 269 264 262 252 246 240 255 206 220 221 225 222 223 219 214 212 221
17 7 358 0 359 5 354 345 342 326 325 330 317 321 327 321 316 319 314 304 295 289 284 291 293 292 271 267 269 263 256 275 283 280 212 211 215 223 222 228 222 216 219
19 11 7 358 5 6 357 354 344 341 330 329 329 327 318 318 317 314 316 322 314 302 282 277 282 286 291 297 273 266 271 265 269 262 270 282 210 227 225 217 223 220 212
21 10 2 357 3 8 359 356 354 344 338 333 331 327 327 321 321 323 322 316 302 288 282 280 269 268 270 274 276 288 277 273 268 289 269 257 267 234 235 230 226 232 217